Location: *
(51.5000°N, 0.1100°W)
Time: 23:51:47
(UTC+00:00)

Daily predictions for brighter satellites

Satellite Brightness Start Highest point End
(mag) Time Altitude Azimuth Time Altitude Azimuth Time Altitude Azimuth
BREEZE M DEB (TANK) 4.2 20:04:43 10° WSW 20:08:40 74° SSE 20:22:15 10° E
Cosmos 2228 Rocket 4.3 20:20:30 10° SE 20:24:06 24° E 20:27:44 10° NNE
Cosmos 2315 Rocket 4.1 20:18:30 10° S 20:24:53 85° E 20:31:18 10° N
Resurs 01 Rocket 1.7 20:23:26 10° SSE 20:27:53 88° ENE 20:32:21 10° NNW
BREEZE M DEB (TANK) 2.4 20:23:04 10° W 20:28:38 54° SSW 20:30:59 10° ESE
SWARM A 4.4 20:25:47 10° N 20:29:04 55° E 20:32:19 10° SSE
Cosmos 2082 Rocket 2.3 20:23:37 10° NNW 20:29:17 86° ENE 20:34:56 10° SSE
Cosmos 1328 Rocket 3.7 20:27:44 10° SSW 20:32:10 83° WNW 20:36:36 10° N
USA 305 4.4 20:28:35 10° W 20:32:11 27° SW 20:35:48 10° SSE
SPOT 1/Viking Rocket 3.8 20:28:48 10° SSE 20:33:54 60° ENE 20:39:01 10° N
ERS-1 Rocket 3.9 20:30:05 10° SE 20:34:34 34° ENE 20:39:04 10° N
Cosmos 1470 Rocket 4.0 20:34:24 10° NNW 20:38:53 68° W 20:43:19 10° S
Cosmos 1943 Rocket 3.6 20:36:10 10° SE 20:40:00 19° E 20:43:49 10° ENE
Spot 2 Rocket 3.8 20:35:51 10° SE 20:40:44 52° ENE 20:45:38 10° N
ERBS 2.5 20:38:07 10° WNW 20:41:25 67° NNE 20:44:43 10° ESE
OBJECT-B 3.6 20:40:16 10° SW 20:42:28 17° W 20:44:42 10° NW
Meteor 1-10 Rocket 4.4 20:38:15 10° S 20:43:42 55° E 20:49:17 10° NNE
Cosmos 1536 3.6 20:41:15 10° N 20:45:04 38° ENE 20:48:43 11° SE
CZ-2C R/B 3.9 20:42:07 10° NNE 20:46:34 53° E 20:51:03 10° S
CARTOSAT-1 4.0 20:42:35 10° SE 20:46:43 47° ENE 20:50:53 10° N
Landsat 7 4.0 20:42:07 10° SSE 20:46:53 80° WSW 20:51:41 10° NNW
SPOT 5 3.7 20:42:37 10° SE 20:47:31 43° ENE 20:52:34 10° N
SPOT 3 Rocket 3.9 20:45:11 10° S 20:50:19 69° WSW 20:55:29 10° NNW
Cosmos 1271 Rocket 2.9 20:46:35 10° S 20:50:31 58° E 20:54:28 10° NNE
COSMOS 2406 4.3 20:45:46 10° NW 20:51:01 39° WSW 20:56:14 10° S
Cosmos 1680 Rocket 3.7 20:47:04 10° NNW 20:52:25 70° ENE 20:57:31 11° SSE
Cosmos 1933 Rocket 3.7 20:48:17 10° NNW 20:52:38 73° W 20:56:57 10° S
ISS -2.9 20:51:42 10° SSW 20:54:38 28° SSE 20:57:36 10° E
Cosmos 2278 Rocket 2.4 20:50:40 10° SSW 20:56:20 81° WNW 21:02:03 10° NNE
Cosmos 2084 Rocket 3.5 20:52:37 10° NW 20:56:53 83° NE 21:00:52 13° SE
Cosmos 1544 3.9 20:55:03 10° N 20:58:27 36° ENE 21:01:17 14° SE
SJ 16-02 1.4 20:54:32 10° SSW 20:58:58 86° WNW 21:03:27 10° NNE
Cosmos 2369 Rocket 3.8 20:58:46 11° SE 21:01:29 15° E 21:04:38 10° ENE
IGS 5A 4.4 20:59:18 10° S 21:03:18 46° W 21:07:20 10° NNW
Cosmos 1666 3.3 21:01:30 10° NNW 21:05:09 53° W 21:08:47 10° S
Cosmos 1733 Rocket 4.2 21:05:32 10° N 21:09:21 29° ENE 21:12:25 14° SE
RESURS DK-1 4.1 21:10:31 10° NNW 21:14:00 25° NE 21:17:29 10° E
ARIANE 5 R/B 2.6 21:10:14 12° SSE 21:14:15 89° ESE 21:18:38 10° NNW
Meteor 2-6 Rocket 4.5 21:09:07 10° SSW 21:14:34 71° WNW 21:20:13 10° N
Cosmos 1812 3.9 21:11:20 10° SSW 21:15:02 45° WNW 21:18:46 10° N
BREEZE-M DEB (TANK) 1.9 21:16:02 10° W 21:17:56 34° SSW 21:18:58 21° SE
Iridium 4 Rocket 3.9 21:13:56 10° S 21:19:50 85° W 21:25:46 10° N
USA 245 3.1 21:18:30 14° S 21:20:15 40° W 21:22:39 10° NNW
Cosmos 990 Rocket 4.0 21:19:53 10° SSW 21:25:04 67° ESE 21:30:18 10° NNE
Cosmos 1898 Rocket 3.6 21:22:53 10° S 21:28:05 59° ESE 21:33:21 10° NNE
ATLAS 2AS CENTAUR R/B 3.1 21:21:38 10° NW 21:28:54 60° SW 21:34:29 16° SSE
SL-24 R/B - RUBIN 2 4.4 21:25:01 10° NW 21:30:23 53° WSW 21:34:02 17° SSE
USA 215 4.0 21:24:08 10° ENE 21:30:30 56° N 21:36:51 10° W
Meteor 1-27 Rocket 3.8 21:25:48 10° S 21:31:41 81° E 21:37:40 10° NNE
Cosmos 44 4.0 21:26:42 10° NW 21:31:58 52° WSW 21:35:56 16° SSE
Cosmos 1818 3.7 21:29:15 10° NW 21:34:44 72° SW 21:38:46 19° SSE
Cosmos 2154 Rocket 4.2 21:28:49 10° NNW 21:35:09 76° W 21:40:59 12° S
Cosmos 1743 2.7 21:32:43 10° N 21:36:37 73° E 21:39:06 21° SSE
Cosmos 962 Rocket 4.5 21:33:51 10° N 21:40:00 75° ENE 21:44:45 18° SSE
Nadezhda 1 Rocket 4.0 21:36:32 10° S 21:42:49 86° W 21:49:03 10° N
BREEZE-M R/B 1.9 21:44:37 10° W 21:46:59 52° S 21:48:00 30° SE
H-2A R/B 3.6 21:45:43 10° NNE 21:49:51 55° E 21:52:23 22° S
Cosmos 44 Rocket 4.5 21:46:34 10° NW 21:51:32 41° NE 21:56:13 11° ESE
Gbstr 26 Del rocket 4.5 21:46:32 10° WNW 21:53:56 53° SSW 21:58:20 21° SE
Terra 1.9 21:51:09 20° S 21:54:30 79° WSW 21:59:18 10° NNW
Cosmos 1461 3.2 21:51:03 10° SSW 21:55:37 54° SE 22:00:08 10° NE
Cosmos 1340 Rocket 3.4 21:53:37 10° NNW 21:57:36 52° W 22:00:21 18° SSW
Cosmos 1862 Rocket 3.8 21:57:49 25° SSE 22:00:04 49° E 22:04:15 10° NNE
Cosmos 2297 3.7 21:55:28 10° SSW 22:01:10 88° ESE 22:06:53 10° NNE
Cosmos 1900 4.4 21:56:12 10° SW 22:01:18 87° NW 22:06:23 10° NE
Cosmos 967 Rocket 4.4 21:55:42 10° SSW 22:01:58 82° SE 22:08:18 10° NE
Cosmos 2228 Rocket 4.2 21:57:49 10° SW 22:02:03 43° WNW 22:06:23 10° N
Okean 1 3.4 22:00:55 26° SSE 22:03:00 61° E 22:06:56 10° NNE
Resurs 01 Rocket 4.3 22:03:00 10° WSW 22:05:02 13° W 22:07:03 10° WNW
ATLAS CENTAUR R/B 2.6 22:10:15 20° ESE 22:10:15 20° ESE 22:12:38 10° ENE
Cosmos 2082 Rocket 4.2 22:08:52 10° WNW 22:12:39 19° W 22:16:26 10° SW
ERS-1 Rocket 3.9 22:09:26 15° SSW 22:13:17 41° W 22:18:04 10° NNW
Cosmos 2366 rocket 4.0 22:08:46 10° N 22:15:00 77° E 22:18:59 24° SSE
Cosmos 1515 3.7 22:13:58 25° SSW 22:16:06 82° W 22:19:55 10° N
ERBS 3.7 22:14:34 10° W 22:17:17 24° SW 22:17:42 23° SSW
Cosmos 2181 Rocket 3.9 22:16:13 21° S 22:20:24 73° E 22:26:32 10° NNE
Cosmos 1707 Rocket 4.1 22:18:52 15° SSW 22:22:22 58° WNW 22:26:46 10° N
Cosmos 1937 Rocket 3.6 22:17:25 10° SSW 22:22:34 74° WNW 22:27:47 10° NNE
Cosmos 1943 Rocket 2.2 22:17:25 10° SSW 22:23:03 85° WNW 22:28:41 10° NNE
SPOT 5 4.3 22:21:39 14° SSW 22:25:40 35° W 22:30:34 10° NNW
ISS -3.9 22:27:49 10° WSW 22:31:11 80° SSE 22:34:35 10° E
Cosmos 1867 3.8 22:28:40 23° S 22:31:49 51° ESE 22:37:08 10° NE
Cosmos 1656 Rocket 4.0 22:30:08 28° SSE 22:32:36 45° ESE 22:37:51 10° NE
Spot 4 4.1 22:30:35 28° SE 22:33:04 60° ENE 22:37:51 10° N
DNEPR-1 R/B 4.2 22:29:04 10° SW 22:34:47 73° NW 22:39:33 10° NE
Cosmos 1238 Rocket 4.0 22:29:00 10° NNW 22:34:48 57° W 22:37:52 23° SSW
SJ 16-02 4.3 22:35:33 10° W 22:38:16 16° NW 22:41:00 10° N
Cosmos 1975 2.9 22:35:37 10° NNW 22:39:36 68° W 22:41:09 35° S
Cosmos 1048 Rocket 4.0 22:34:48 10° NNW 22:40:09 89° WSW 22:42:47 31° SSE
Cosmos 2098 4.2 22:41:23 10° N 22:44:22 71° E 22:44:52 55° SE
Cosmos 2369 Rocket 2.1 22:40:29 19° SSW 22:44:36 81° ESE 22:50:18 10° NNE
Cosmos 2218 Rocket 4.2 22:38:26 10° NNW 22:44:42 68° W 22:48:39 24° S
Cosmos 2344 4.3 22:36:57 10° NW 22:45:49 84° NE 22:56:38 15° SE
Cosmos 1733 Rocket 4.3 22:43:16 10° NNW 22:47:11 34° W 22:49:30 20° SW
ALOS 2 3.2 22:47:43 29° SE 22:49:37 48° ENE 22:53:51 10° N
Meteor 1-18 Rocket 4.3 22:48:18 22° SSW 22:52:05 74° WNW 22:57:40 10° N
RESURS DK-1 2.7 22:48:14 10° NW 22:52:19 55° WSW 22:53:36 38° S
SL-27 R/B 2.2 22:49:03 10° NNW 22:52:25 90° WSW 22:53:01 57° SSE
Okean 3 4.4 22:51:44 29° ESE 22:52:47 33° E 22:56:37 10° NNE
Lacrosse 5 3.1 22:54:17 24° ESE 22:54:17 24° ESE 22:58:00 10° ENE
Cosmos 1356 Rocket 3.8 22:51:54 10° N 22:56:09 56° ENE 22:57:43 35° SE
NOSS 2-1 (E) 4.2 22:51:38 10° NW 22:56:16 74° NE 23:00:42 20° SE
Nadezhda 3 Rocket 4.2 22:59:44 29° SSE 23:02:50 59° E 23:08:54 10° NNE
Cosmos 372 Rocket 4.4 23:00:01 15° SW 23:04:11 59° WNW 23:09:15 10° NNE
Cosmos 1908 Rocket 4.0 23:02:55 10° NNW 23:07:18 54° W 23:09:03 33° SSW
Meteor 1-12 Rocket 4.3 23:03:36 10° NNW 23:09:30 81° ENE 23:12:18 32° SSE
Cosmos 2298 Rocket 3.9 23:09:55 30° SSW 23:12:39 84° ESE 23:17:59 10° NNE
USA 215 3.6 23:06:40 10° E 23:13:08 66° NNE 23:19:37 10° WNW
Sich 1 Rocket 4.0 23:10:29 10° N 23:14:59 56° ENE 23:16:39 35° SE
COSMOS 2455 3.6 23:10:38 10° NNW 23:16:31 50° NE 23:21:45 13° ESE
Cosmos 1805 3.8 23:13:35 10° N 23:17:24 48° ENE 23:18:27 37° ESE
Cosmos 494 Rocket 4.2 23:13:24 10° NNW 23:18:31 60° WSW 23:20:30 35° S
Cosmos 1378 3.0 23:22:00 55° SSE 23:22:40 73° E 23:26:24 10° NNE
Cosmos 2263 4.3 23:18:36 20° SW 23:22:45 77° WNW 23:28:35 10° NNE
Cosmos 2242 Rocket 3.8 23:21:30 33° SSW 23:23:22 65° WNW 23:27:52 10° N
Cosmos 1066 Rocket 4.4 23:22:33 33° SSE 23:24:59 59° E 23:30:29 10° NNE
MTI 4.2 23:22:06 10° NNE 23:24:50 44° E 23:24:50 44° E
Okean 2 Rocket 3.5 23:22:16 10° N 23:26:35 51° ENE 23:28:09 34° SE
Meteor 1-15 Rocket 4.4 23:21:28 10° N 23:27:12 72° ENE 23:30:02 32° SSE
Cosmos 2239 Rocket 4.5 23:21:49 10° N 23:28:10 84° W 23:31:22 32° S
COBE Rocket 4.0 23:26:12 36° SSE 23:28:22 88° ENE 23:33:36 10° NNW
Cosmos 2151 Rocket 4.4 23:24:14 10° N 23:28:34 44° ENE 23:30:21 29° SE
Cosmos 2227 Rocket 3.7 23:26:38 10° NNW 23:31:43 32° NE 23:36:46 10° ESE
Terra 4.2 23:31:15 10° WSW 23:33:03 12° W 23:34:51 10° WNW
Cosmos 44 Rocket 3.7 23:28:12 10° NW 23:33:17 52° WSW 23:34:54 38° S
Cosmos 2297 Rocket 3.3 23:28:43 10° NNW 23:34:04 40° NE 23:39:09 11° ESE
Okean 1-7 3.5 23:33:20 32° SW 23:35:03 54° WNW 23:39:18 10° N
SAR-Lupe-2 3.5 23:31:31 10° NNE 23:35:07 67° ESE 23:35:36 58° SSE
Cosmos 1766 3.7 23:32:02 10° N 23:35:56 53° ENE 23:36:58 40° SE
Meteor 2-4 Rocket 4.3 23:33:02 22° SW 23:36:36 52° WNW 23:42:01 10° N
Cosmos 1703 Rocket 4.2 23:37:24 29° SW 23:39:20 48° WNW 23:43:40 10° N
Cosmos 1782 Rocket 4.2 23:35:34 10° NNW 23:39:49 45° W 23:41:12 34° SW
Cosmos 2150 Rocket 4.3 23:36:44 25° SW 23:39:52 67° WNW 23:45:08 10° NNE
NOSS 2-1 (C) 4.3 23:37:53 10° NW 23:42:35 59° SW 23:45:14 33° SSE
COSMOS 2487 2.2 23:42:31 10° NNW 23:45:56 80° WSW 23:46:11 73° SSW
Cosmos 1125 Rocket 3.6 23:44:32 28° SW 23:47:18 72° WNW 23:52:33 10° NNE
ATLAS CENTAUR R/B 1.7 23:46:20 25° WSW 23:48:17 54° NW 23:52:06 10° NE
NOSS 2-1 (D) 4.4 23:44:47 10° NW 23:49:29 53° SW 23:51:55 33° S
Cosmos 1934 Rocket 3.9 23:44:24 10° N 23:50:34 83° W 23:53:27 33° S
BREEZE-M DEB (TANK) 3.4 23:49:35 10° WNW 23:51:45 30° W 23:51:45 30° W
Cosmos 1470 4.0 23:51:54 10° N 23:55:30 33° ENE 23:57:01 24° ESE
